This demonstration page uses our WeatherBlox Daily Observations layout. Learn more.

Left ArrowRight Arrow

39.95238, -75.16362

Hourly Observations for April 14, 2015

Temp ( °F °C ) Dew Point ( °F °C ) Humidity (%) Winds ( mph kmh ) Pressure ( in mb ) Visibility ( mi km ) Precip ( " mm )
12:54 am 00:54 Clear 61 16.1 51 10.6 70 70 SSW 10 17 30.16 1021 10 16 0.00 0.00
1:54 am 01:54 Partly Cloudy 60 15.6 52 11.1 75 75 SSW 8 13 30.13 1020 10 16 0.00 0.00
2:54 am 02:54 Partly Cloudy 59 15 53 11.7 81 81 SSW 7 11 30.11 1020 10 16 0.00 0.00
3:54 am 03:54 Partly Cloudy 59 15 53 11.7 81 81 SSW 7 11 30.11 1020 10 16 0.00 0.00
4:54 am 04:54 Mostly Cloudy 60 15.6 54 12.2 80 80 SSW 8 13 30.11 1020 10 16 0.00 0.00
5:54 am 05:54 Cloudy 62 16.7 54 12.2 75 75 SSW 8 13 30.11 1020 10 16 0.00 0.00
6:54 am 06:54 Cloudy 63 17.2 56 13.3 78 78 SW 12 19 30.13 1020 10 16 0.00 0.03
6:57 am 06:57 Cloudy with Light Rain 63 17.2 57 13.9 81 81 SW 12 19 30.12 1020 8 13 0.00 0.03
7:54 am 07:54 Cloudy with Light Rain 63 17.2 58 14.4 84 84 SSW 8 13 30.14 1021 8 13 0.01 0.25
8:34 am 08:34 Cloudy with Light Rain 63 17 57 14 83 83 WSW 9 15 30.15 1021 6 10 0.00 0.00
8:54 am 08:54 Cloudy with Light Rain 62 16.7 59 15 90 90 WSW 9 15 30.15 1021 7 11 0.02 0.51
9:01 am 09:01 Cloudy with Light Rain 63 17.2 59 15 87 87 W 8 13 30.15 1021 7 11 0.00 0.03
9:18 am 09:18 Cloudy with Light Rain 63 17 59 15 88 88 WNW 8 13 30.18 1022 6 10 0.00 0.00
9:54 am 09:54 Cloudy with Light Rain 62 16.7 58 14.4 86 86 NNW 6 9 30.17 1022 6 10 0.02 0.51
10:00 am 10:00 Cloudy with Light Rain 62 16.7 58 14.4 86 86 N 7 11 30.18 1022 7 11 0.00 0.03
10:54 am 10:54 Cloudy with Light Rain 57 13.9 50 10 78 78 N 12 19 30.19 1023 9 14 0.00 0.03
11:25 am 11:25 Cloudy 56 13.3 48 8.9 75 75 N 10 17 30.21 1023 10 16 0.01 0.25
11:54 am 11:54 Cloudy with Light Rain 57 13.9 46 7.8 67 67 N 10 17 30.20 1023 10 16 0.01 0.25
12:14 pm 12:14 Cloudy 57 13.9 45 7.2 64 64 N 6 9 30.18 1022 10 16 0.00 0.03
12:54 pm 12:54 Cloudy 59 15 42 5.6 54 54 NNE 5 7 30.17 1022 10 16 0.00 0.03
1:54 pm 13:54 Cloudy 61 16.1 38 3.3 43 43 N 7 11 30.16 1022 10 16 0.00 0.00
2:54 pm 14:54 Cloudy 63 17.2 30 -1.1 29 29 NE 10 17 30.14 1021 10 16 0.00 0.00
3:54 pm 15:54 Cloudy 62 16.7 30 -1.1 30 30 NE 8 13 30.12 1020 10 16 0.00 0.00
4:54 pm 16:54 Cloudy 63 17.2 30 -1.1 29 29 ENE 5 7 30.11 1020 10 16 0.00 0.00
5:54 pm 17:54 Cloudy 60 15.6 36 2.2 41 41 E 3 6 30.11 1020 10 16 0.00 0.00
6:54 pm 18:54 Cloudy with Light Rain 59 15 35 1.7 41 41 E 5 7 30.10 1019 10 16 0.00 0.03
7:54 pm 19:54 Cloudy with Light Rain 56 13.3 43 6.1 62 62 ESE 5 7 30.11 1020 10 16 0.01 0.25
8:54 pm 20:54 Cloudy with Light Rain 55 12.8 44 6.7 67 67 Calm 30.13 1020 10 16 0.02 0.51
9:54 pm 21:54 Cloudy with Light Rain 55 12.8 46 7.8 72 72 VRB 6 9 30.14 1021 10 16 0.03 0.76
10:54 pm 22:54 Cloudy 53 11.7 47 8.3 80 80 Calm 30.12 1020 10 16 0.00 0.03
11:54 pm 23:54 Cloudy with Light Rain 53 11.7 48 8.9 83 83 NNW 6 9 30.14 1021 10 16 0.00 0.03

Powered by AerisWeather